TimeEST,TemperatureF,Dew PointF,Humidity,Sea Level PressureIn,VisibilityMPH,Wind Direction,Wind SpeedMPH,Gust SpeedMPH,PrecipitationIn,Events,Conditions,WindDirDegrees,DateUTC
12:56 AM,23.0,18.0,81,29.73,-9999.0,NNW,5.8,-,N/A,,Unknown,340,2013-02-14 05:56:00
1:56 AM,23.0,18.0,81,29.73,-9999.0,NNW,4.6,-,N/A,,Unknown,340,2013-02-14 06:56:00
2:56 AM,21.9,18.0,85,29.73,-9999.0,Calm,Calm,-,N/A,,Unknown,0,2013-02-14 07:56:00
3:56 AM,19.9,17.1,89,29.77,-9999.0,Calm,Calm,-,N/A,,Unknown,0,2013-02-14 08:56:00
4:56 AM,21.0,18.0,88,29.75,-9999.0,NW,4.6,-,N/A,,Unknown,310,2013-02-14 09:56:00
5:56 AM,19.9,17.1,89,29.76,-9999.0,NNW,4.6,-,N/A,,Unknown,340,2013-02-14 10:56:00
6:56 AM,19.0,17.1,92,29.79,-9999.0,North,3.5,-,N/A,,Unknown,350,2013-02-14 11:56:00
7:56 AM,19.0,16.0,88,29.81,-9999.0,Calm,Calm,-,N/A,,Unknown,0,2013-02-14 12:56:00
8:56 AM,23.0,18.0,81,29.81,-9999.0,NNW,3.5,-,N/A,,Unknown,330,2013-02-14 13:56:00
9:56 AM,25.0,18.0,75,29.82,-9999.0,Variable,5.8,-,N/A,,Unknown,0,2013-02-14 14:56:00
10:56 AM,28.9,15.1,56,29.83,-9999.0,NNW,9.2,-,N/A,,Unknown,330,2013-02-14 15:56:00
11:56 AM,30.9,12.0,46,29.82,-9999.0,NNW,12.7,18.4,N/A,,Unknown,340,2013-02-14 16:56:00
12:56 PM,32.0,12.0,44,29.81,-9999.0,North,9.2,18.4,N/A,,Unknown,350,2013-02-14 17:56:00
1:56 PM,32.0,12.9,45,29.83,-9999.0,NW,9.2,-,N/A,,Unknown,310,2013-02-14 18:56:00
2:56 PM,30.0,14.0,51,29.84,-9999.0,NNW,11.5,-,N/A,,Unknown,330,2013-02-14 19:56:00
3:56 PM,30.0,16.0,56,29.87,-9999.0,North,6.9,-,N/A,,Unknown,360,2013-02-14 20:56:00
4:56 PM,28.9,16.0,58,29.88,-9999.0,North,5.8,-,N/A,,Unknown,350,2013-02-14 21:56:00
5:56 PM,28.9,17.1,61,29.91,-9999.0,NNW,3.5,-,N/A,,Unknown,340,2013-02-14 22:56:00
6:56 PM,28.0,19.0,69,29.94,-9999.0,Calm,Calm,-,N/A,,Unknown,0,2013-02-14 23:56:00
7:56 PM,28.0,17.1,63,29.94,-9999.0,Calm,Calm,-,N/A,,Unknown,0,2013-02-15 00:56:00
8:56 PM,27.0,18.0,69,29.95,-9999.0,Calm,Calm,-,N/A,,Unknown,0,2013-02-15 01:56:00
9:56 PM,27.0,18.0,69,29.94,-9999.0,Calm,Calm,-,N/A,,Unknown,0,2013-02-15 02:56:00
10:56 PM,26.1,18.0,71,29.94,-9999.0,Calm,Calm,-,N/A,,Unknown,0,2013-02-15 03:56:00
11:56 PM,23.0,17.1,78,29.94,-9999.0,Calm,Calm,-,N/A,,Unknown,0,2013-02-15 04:56:00